This is the latest recevied weather packets stored in our database for station/object W6ORV. If no packets are shown the sender has not sent any weather packets the latest 10 day(s).
| Time | Temp. | Humidity | Pressure | Rain* | Wind** | Luminosity | Snow |
|---|---|---|---|---|---|---|---|
| 1777747694 | 18.33° C | 73% | 4298.7 hPa | 0 mm | - | 814 W/m² | - |
| 1777747389 | 18.33° C | 74% | 4298.9 hPa | 0 mm | - | 815 W/m² | - |
| 1777747086 | 17.78° C | 75% | 4298.9 hPa | 0 mm | - | 687 W/m² | - |
| 1777746782 | 18.33° C | 74% | 4299.1 hPa | 0 mm | - | 789 W/m² | - |
| 1777746477 | 17.78° C | 76% | 4298.9 hPa | 0 mm | - | 780 W/m² | - |
| 1777746173 | 17.22° C | 77% | 4299.2 hPa | 0 mm | - | 815 W/m² | - |
| 1777745870 | 16.67° C | 77% | 4299.1 hPa | 0 mm | - | 783 W/m² | - |
| 1777745569 | 16.67° C | 77% | 4299.2 hPa | 0 mm | - | 809 W/m² | - |
| 1777745266 | 16.11° C | 80% | 4299 hPa | 0 mm | - | 809 W/m² | - |
| 1777744963 | 16.11° C | 81% | 4299.2 hPa | 0 mm | - | 771 W/m² | - |
| 1777744663 | 15.56° C | 82% | 4299.2 hPa | 0 mm | - | 752 W/m² | - |
| 1777744358 | 15° C | 83% | 4299.2 hPa | 0 mm | - | 813 W/m² | - |
| 1777744055 | 15° C | 86% | 4299.5 hPa | 0 mm | - | 799 W/m² | - |
| 1777743753 | 14.44° C | 85% | 4299.2 hPa | 0 mm | - | 713 W/m² | - |
| 1777743450 | 13.89° C | 88% | 4299.3 hPa | 0 mm | - | 718 W/m² | - |
| 1777743147 | 13.33° C | 92% | 4299.3 hPa | 0 mm | - | 765 W/m² | - |
| 1777742845 | 12.78° C | 95% | 4299.1 hPa | 0 mm | - | 439 W/m² | - |
| 1777742541 | 12.78° C | 95% | 4299.3 hPa | 0 mm | - | 446 W/m² | - |
| 1777742237 | 12.22° C | 98% | 4299.1 hPa | 0 mm | - | 424 W/m² | - |
| 1777741934 | 12.22° C | 98% | 4299.4 hPa | 0 mm | - | 327 W/m² | - |
| 1777741631 | 11.67° C | 99% | 4299.5 hPa | 0 mm | - | 274 W/m² | - |
| 1777741328 | 11.11° C | 99% | 4299.3 hPa | 0 mm | - | 241 W/m² | - |
| 1777741023 | 11.67° C | 99% | 4299.3 hPa | 0 mm | - | 224 W/m² | - |
| 1777740721 | 11.67° C | 99% | 4299.1 hPa | 0 mm | - | 207 W/m² | - |
| 1777740417 | 11.11° C | 99% | 4299.4 hPa | 0 mm | - | 260 W/m² | - |
* Rain latest hour (hover to see other rain measurements)
** Current wind speed in m/s (hover to see current wind gust speed)